Campo, CA

11:31 AM PDT on September 20, 2019 (GMT -0700)
Campo

Weather History for KCZZ - May, 2019

Change the Weather History Date:

Tuesday, May 7, 2019

  Actual Average Record
Temperature  
Mean Temperature 52 °F 59 °F  
Max Temperature 56 °F 78 °F 90 °F (1989)
Min Temperature 48 °F 41 °F 29 °F (1975)
Degree Days  
Heating Degree Days 13 6  
Month to date heating degree days 73 46  
Since 1 July heating degree days 2791 2814  
Cooling Degree Days 0 1  
Month to date cooling degree days 0 2  
Year to date cooling degree days 2 5  
Growing Degree Days 2 (Base 50)    
Moisture  
Dew Point 47 °F    
Average Humidity 86    
Maximum Humidity 100    
Minimum Humidity 72    
Precipitation  
Precipitation 0.01 in 0.00 in 0.68 in (2017)
Month to date precipitation 0.17 0.08  
Year to date precipitation 11.36 9.94  
Sea Level Pressure  
Sea Level Pressure 29.97 in    
Wind  
Wind Speed 9 mph (WSW)    
Max Wind Speed 14 mph    
Max Gust Speed -    
T = Trace of Precipitation, MM = Missing Value Source: NWS Daily Summary

Daily Weather History Graph

Daily Weather History Graph

Search for Another Location

Airport or City:

Astronomy

May. 07, 2019 Rise Set
Actual Time 5:53 AM PDT 7:31 PM PDT
Civil Twilight 5:27 AM PDT 7:58 PM PDT
Nautical Twilight 4:55 AM PDT 8:30 PM PDT
Astronomical Twilight 4:21 AM PDT 9:04 PM PDT
Moon 8:06 AM PDT (5/7) 10:32 PM PDT (5/7)
Length of Visible Light 14h 31m
Length of Day
13h 38m
Waxing Crescent, 9% of the Moon is Illuminated
May 7
Waxing Crescent
May 11
First Quarter
May 18
Full
May 26
Last Quarter
Jun 3
New

Hourly Weather History & Observations

Time (PDT) Temp. Dew Point Humidity Pressure Visibility Wind Dir Wind Speed Gust Speed Precip Events Conditions
12:52 AM 50.0 °F 46.0 °F 86% 29.91 in - West 9.2 mph - N/A   Unknown
1:52 AM 50.0 °F 45.0 °F 83% 29.91 in - WSW 8.1 mph - N/A   Unknown
2:52 AM 48.9 °F 45.0 °F 86% 29.91 in - SW 9.2 mph - N/A   Unknown
3:52 AM 48.9 °F 46.0 °F 90% 29.92 in - SW 6.9 mph - N/A   Unknown
4:52 AM 48.9 °F 46.0 °F 90% 29.93 in - SW 6.9 mph - N/A   Unknown
5:52 AM 48.0 °F 46.9 °F 96% 29.95 in - SW 5.8 mph - N/A   Unknown
6:52 AM 48.9 °F 48.0 °F 97% 29.97 in - West 4.6 mph - N/A   Unknown
7:52 AM 50.0 °F 46.9 °F 89% 29.98 in - WSW 12.7 mph - 0.01 in   Unknown
8:52 AM 50.0 °F 48.0 °F 93% 29.99 in - West 9.2 mph - N/A   Unknown
9:52 AM 52.0 °F 48.9 °F 89% 30.00 in - SW 9.2 mph - N/A   Unknown
10:52 AM 54.0 °F 51.1 °F 90% 30.01 in - SW 8.1 mph - N/A   Unknown
11:52 AM 55.9 °F 48.9 °F 77% 30.01 in - SW 8.1 mph - N/A   Unknown
12:52 PM 55.9 °F 48.0 °F 75% 30.00 in - SW 13.8 mph - N/A   Unknown
1:52 PM 55.0 °F 48.0 °F 77% 30.01 in - SW 11.5 mph - N/A   Unknown
2:52 PM 55.0 °F 48.0 °F 77% 30.01 in - WSW 12.7 mph - N/A   Unknown
3:52 PM 55.0 °F 48.0 °F 77% 29.99 in - SW 13.8 mph - N/A   Unknown
4:52 PM 55.0 °F 46.9 °F 74% 29.99 in - SW 10.4 mph - N/A   Unknown
5:52 PM 55.0 °F 46.9 °F 74% 29.98 in - WNW 9.2 mph - N/A   Unknown
6:52 PM 54.0 °F 46.9 °F 77% 29.96 in - WNW 8.1 mph - N/A   Unknown
7:52 PM 53.1 °F 46.9 °F 80% 29.97 in - West 8.1 mph - N/A   Unknown
8:52 PM 52.0 °F 46.0 °F 80% 29.98 in - West 4.6 mph - N/A   Unknown
9:52 PM 51.1 °F 46.0 °F 83% 29.98 in - SW 6.9 mph - N/A   Unknown
10:52 PM 48.0 °F 45.0 °F 89% 29.98 in - WSW 5.8 mph - N/A   Unknown
11:52 PM 48.0 °F 45.0 °F 89% 29.98 in - WSW 3.5 mph - N/A   Unknown